Orbital Elements at Epoch 2459000.5 (2020-May-31.0) TDB
Reference: JPL 21 (heliocentric ecliptic J2000)
Element | Value | Uncertainty (1-sigma) | Units |
e | .6031806887292365 | 0.00016942 | |
a | 2.118322790389764 | 0.00064575 | au |
q | .840591390731628 | 0.00010265 | au |
i | 7.261185434323867 | 0.0010987 | deg |
node | 178.4236150310489 | 0.00099261 | deg |
peri | 293.9013423170585 | 0.0009646 | deg |
M | 332.7992974976441 | 1.1862 | deg |
tp | 2459085.587204365673 (2020-Aug-24.08720437) | 3.7494 | TDB |
period | 1126.125090665926 3.08 | 0.51493 0.00141 | d yr |
n | .3196802939424044 | 0.00014618 | deg/d |
Q | 3.3960541900479 | 0.0010353 | au |
|
| | Orbit Determination Parameters
Additional Information
|